This is the latest recevied weather packets stored in our database for station/object N5PA. If no packets are shown the sender has not sent any weather packets the latest 10 day(s).
| Time | Temp. | Humidity | Pressure | Rain* | Wind** | Luminosity | Snow |
|---|---|---|---|---|---|---|---|
| 1777527307 | 18.89° C | 37% | 1012.2 hPa | 0 mm | - | 1011 W/m² | - |
| 1777527006 | 18.89° C | 37% | 1012.3 hPa | 0 mm | - | 1011 W/m² | - |
| 1777526706 | 18.89° C | 37% | 1012.3 hPa | 0 mm | - | 1011 W/m² | - |
| 1777526406 | 18.89° C | 37% | 1012.3 hPa | 0 mm | - | 1011 W/m² | - |
| 1777526107 | 18.89° C | 37% | 1012.4 hPa | 0.25 mm | - | 1011 W/m² | - |
| 1777525807 | 18.89° C | 37% | 1012.5 hPa | 0.25 mm | - | 1011 W/m² | - |
| 1777525507 | 18.89° C | 37% | 1012.3 hPa | 0.25 mm | - | 1005 W/m² | - |
| 1777525207 | 18.33° C | 37% | 1012.5 hPa | 0.25 mm | - | 1011 W/m² | - |
| 1777524907 | 18.33° C | 37% | 1012.3 hPa | 0.25 mm | - | 1011 W/m² | - |
| 1777524606 | 18.33° C | 37% | 1012.5 hPa | 0.25 mm | - | 1013 W/m² | - |
| 1777524306 | 18.33° C | 37% | 1012.6 hPa | 0.25 mm | - | 1009 W/m² | - |
| 1777524007 | 18.33° C | 37% | 1012.3 hPa | 0.25 mm | - | 1013 W/m² | - |
| 1777523706 | 18.33° C | 37% | 1012.5 hPa | 0.25 mm | - | 1013 W/m² | - |
| 1777523406 | 18.33° C | 37% | 1012.6 hPa | 0.51 mm | - | 1013 W/m² | - |
| 1777523107 | 18.33° C | 38% | 1012.7 hPa | 0.51 mm | - | 1011 W/m² | - |
| 1777522806 | 18.33° C | 38% | 1012.4 hPa | 0.51 mm | - | 1013 W/m² | - |
| 1777522507 | 18.33° C | 38% | 1012.6 hPa | 0.51 mm | - | 1013 W/m² | - |
| 1777522206 | 18.33° C | 38% | 1012.8 hPa | 0.51 mm | - | 1011 W/m² | - |
| 1777521907 | 18.33° C | 38% | 1012.9 hPa | 0.51 mm | - | 1013 W/m² | - |
| 1777521607 | 18.33° C | 38% | 1013 hPa | 0.51 mm | - | 1004 W/m² | - |
| 1777521306 | 18.33° C | 38% | 1013 hPa | 0.51 mm | - | 1011 W/m² | - |
| 1777521006 | 18.33° C | 38% | 1013.2 hPa | 0.51 mm | - | 1014 W/m² | - |
| 1777520706 | 18.33° C | 38% | 1013.2 hPa | 0.51 mm | - | 1013 W/m² | - |
| 1777520406 | 18.33° C | 38% | 1013.3 hPa | 0.51 mm | - | 1013 W/m² | - |
| 1777520107 | 18.33° C | 38% | 1013.5 hPa | 0.51 mm | - | 1013 W/m² | - |
* Rain latest hour (hover to see other rain measurements)
** Current wind speed in m/s (hover to see current wind gust speed)